| time (UTC) | temp F | wind direction | speed MPH | gust MPH | rain 1hr in | rain 24hr in | rain mn in | humidity % | barometer mb |
| 20260504203553 | 77 | 0 | 13.0 | 32.0 | 0.00 | 0.00 | 0.00 | 48 | 999.1 |
| 20260504202052 | 77 | 0 | 15.0 | 32.0 | 0.00 | 0.00 | 0.00 | 46 | 999.1 |
| 20260504200553 | 77 | 0 | 16.0 | 32.0 | 0.00 | 0.00 | 0.00 | 47 | 999.2 |
| 20260504195053 | 76 | 0 | 12.0 | 32.0 | 0.00 | 0.00 | 0.00 | 48 | 999.4 |
| 20260504193554 | 76 | 0 | 13.0 | 32.0 | 0.00 | 0.00 | 0.00 | 48 | 999.6 |
| 20260504192052 | 76 | 0 | 9.0 | 32.0 | 0.00 | 0.00 | 0.00 | 51 | 999.6 |
| 20260504190553 | 75 | 0 | 15.0 | 32.0 | 0.00 | 0.00 | 0.00 | 53 | 999.9 |
| 20260504185050 | 75 | 0 | 13.0 | 28.0 | 0.00 | 0.00 | 0.00 | 53 | 1000.1 |
| 20260504183550 | 74 | 0 | 14.0 | 28.0 | 0.00 | 0.00 | 0.00 | 56 | 1000.4 |
| 20260504182048 | 74 | 0 | 12.0 | 28.0 | 0.00 | 0.00 | 0.00 | 55 | 1000.7 |
| 20260504180549 | 73 | 0 | 12.0 | 28.0 | 0.00 | 0.00 | 0.00 | 59 | 1000.9 |
| 20260504175048 | 72 | 0 | 12.0 | 28.0 | 0.00 | 0.00 | 0.00 | 58 | 1001.2 |
| 20260504173548 | 72 | 0 | 14.0 | 28.0 | 0.00 | 0.00 | 0.00 | 58 | 1001.3 |
| 20260504172048 | 72 | 0 | 13.0 | 27.0 | 0.00 | 0.00 | 0.00 | 56 | 1001.4 |
| 20260504170545 | 71 | 0 | 13.0 | 25.0 | 0.00 | 0.00 | 0.00 | 57 | 1001.5 |
| 20260504150537 | 66 | 0 | 8.0 | 16.0 | 0.00 | 0.00 | 0.00 | 60 | 1003.2 |
| 20260504140535 | 62 | 0 | 7.0 | 14.0 | 0.00 | 0.00 | 0.00 | 68 | 1003.7 |
| 20260504130529 | 56 | 0 | 8.0 | 14.0 | 0.00 | 0.00 | 0.00 | 75 | 1004.1 |
| 20260504110529 | 51 | 0 | 7.0 | 12.0 | 0.00 | 0.00 | 0.00 | 79 | 1004.3 |
| 20260504100529 | 51 | 0 | 6.0 | 15.0 | 0.00 | 0.00 | 0.00 | 79 | 1004.1 |
| 20260504080531 | 51 | 0 | 7.0 | 14.0 | 0.00 | 0.00 | 0.00 | 77 | 1004.4 |
| 20260504050525 | 51 | 178 | 5.0 | 8.0 | 0.00 | 0.00 | 0.00 | 78 | 1006.5 |
| 20260504045025 | 51 | 0 | 4.0 | 9.0 | 0.00 | 0.00 | 0.00 | 78 | 1006.6 |
| 20260504043521 | 51 | 170 | 4.0 | 9.0 | 0.00 | 0.00 | 0.00 | 78 | 1006.7 |
| 20260504042021 | 51 | 178 | 4.0 | 8.0 | 0.00 | 0.00 | 0.00 | 78 | 1006.8 |
| 20260504040522 | 51 | 0 | 5.0 | 10.0 | 0.00 | 0.00 | 0.00 | 77 | 1006.7 |
| 20260504035023 | 51 | 198 | 6.0 | 10.0 | 0.00 | 0.00 | 0.00 | 77 | 1006.8 |
| 20260504033521 | 51 | 0 | 6.0 | 12.0 | 0.00 | 0.00 | 0.00 | 77 | 1006.9 |
| 20260504032021 | 52 | 0 | 6.0 | 11.0 | 0.00 | 0.00 | 0.00 | 76 | 1007.0 |
| 20260504030522 | 52 | 164 | 6.0 | 11.0 | 0.00 | 0.00 | 0.00 | 76 | 1007.0 |
| 20260504025022 | 51 | 0 | 5.0 | 12.0 | 0.00 | 0.00 | 0.00 | 77 | 1007.1 |
| 20260504023521 | 52 | 0 | 5.0 | 9.0 | 0.00 | 0.00 | 0.00 | 77 | 1006.9 |
| 20260504022021 | 51 | 185 | 5.0 | 9.0 | 0.00 | 0.00 | 0.00 | 78 | 1007.0 |
| 20260504020522 | 51 | 0 | 5.0 | 10.0 | 0.00 | 0.00 | 0.00 | 81 | 1007.1 |
| 20260504015023 | 51 | 0 | 4.0 | 7.0 | 0.00 | 0.00 | 0.00 | 83 | 1007.1 |
| 20260504013522 | 51 | 169 | 3.0 | 8.0 | 0.00 | 0.00 | 0.00 | 83 | 1007.1 |
| 20260504012022 | 51 | 0 | 4.0 | 8.0 | 0.00 | 0.00 | 0.00 | 82 | 1007.2 |
| 20260504010522 | 52 | 0 | 5.0 | 11.0 | 0.00 | 0.00 | 0.00 | 82 | 1007.1 |
| 20260504005021 | 53 | 146 | 6.0 | 11.0 | 0.00 | 0.00 | 0.00 | 82 | 1007.1 |
| 20260504003521 | 53 | 119 | 5.0 | 11.0 | 0.00 | 0.00 | 0.00 | 81 | 1007.1 |
| 20260504002017 | 53 | 0 | 7.0 | 14.0 | 0.00 | 0.00 | 0.00 | 79 | 1007.1 |
| 20260504000516 | 54 | 152 | 8.0 | 21.0 | 0.00 | 0.00 | 0.00 | 78 | 1007.4 |
| 20260503235015 | 54 | 204 | 6.0 | 21.0 | 0.00 | 0.00 | 0.00 | 78 | 1007.5 |
| 20260503233515 | 54 | 165 | 8.0 | 21.0 | 0.00 | 0.00 | 0.00 | 77 | 1007.8 |
| 20260503232014 | 54 | 0 | 8.0 | 21.0 | 0.00 | 0.00 | 0.00 | 77 | 1007.9 |
| 20260503230518 | 53 | 0 | 7.0 | 21.0 | 0.00 | 0.00 | 0.00 | 78 | 1008.1 |
| 20260503225009 | 53 | 157 | 10.0 | 21.0 | 0.00 | 0.00 | 0.00 | 76 | 1008.4 |
| 20260503223510 | 54 | 133 | 8.0 | 21.0 | 0.00 | 0.00 | 0.00 | 73 | 1008.5 |
| 20260503222008 | 53 | 138 | 8.0 | 20.0 | 0.00 | 0.00 | 0.00 | 75 | 1008.7 |
| 20260503220510 | 52 | 0 | 8.0 | 15.0 | 0.00 | 0.00 | 0.00 | 76 | 1008.8 |
| 20260503215009 | 51 | 176 | 8.0 | 15.0 | 0.00 | 0.00 | 0.00 | 78 | 1009.0 |
| 20260503213510 | 51 | 136 | 8.0 | 14.0 | 0.00 | 0.00 | 0.00 | 80 | 1009.0 |
| 20260503212009 | 50 | 0 | 7.0 | 14.0 | 0.00 | 0.00 | 0.00 | 82 | 1009.4 |
| 20260503210509 | 49 | 173 | 8.0 | 16.0 | 0.00 | 0.00 | 0.00 | 82 | 1009.5 |
| 20260503205010 | 49 | 194 | 9.0 | 18.0 | 0.00 | 0.00 | 0.00 | 83 | 1009.7 |